User: anonymous   Login
Location: Allos
(44.2333°N, 6.6333°E)
Time: 13:59:07
(UTC+00:00)
Language:

Cosmos 1821 Rocket - Orbit

View from above orbital plane
View from above orbital plane
View from above satellite
View from above satellite

Ground track
Ground track

The orbit data is extracted from the following two-line orbital elements,

1 17526U 87017B   21125.92773908  .00000006  00000-0 -87087-5 0  9992
2 17526  82.9038  59.9066 0039411 312.1534  47.6277 13.76893204701324
Epoch (UTC): 05 May 2021 22:15:56
Eccentricity: 0.0039411
inclination: 82.9038°
perigee height: 946 km
apogee height: 1004 km
right ascension of ascending node: 59.9066°
argument of perigee: 312.1534°
revolutions per day: 13.76893204
mean anomaly at epoch: 47.6277°
orbit number at epoch: 70132

The dashed part of the orbit path shows where the satellite is in the earth's shadow,  

DLR